User: anonymous   Login
Location: Unspecified
(0.0000°N, 0.0000°E)
Time: 19:09:38
(UTC+00:00)
Language:

STARLINK-31102 - Orbit

View from above orbital plane
View from above orbital plane
View from above satellite
View from above satellite

Ground track
Ground track

The orbit is defined by the following mean orbital elements,

1 58715U          26145.66668980 +.00000000 +00000-0 +19308-2 0 00009
2 58715  53.1602 232.5528 0001426  69.9890 102.9622 15.33506190    01
Epoch (UTC): 25 May 2026 16:00:01
Eccentricity: 0.0001426
inclination: 53.1602°
perigee height: 464 km
apogee height: 466 km
right ascension of ascending node: 232.5528°
argument of perigee: 69.9890°
revolutions per day: 15.33506190
mean anomaly at epoch: 102.9622°

The dashed part of the orbit path shows where the satellite is in the earth's shadow,  

DLR